Location: Roswell
(33.3943°N, 104.5230°W)
Time: 14:19:01
(UTC+00:00)

Vanguard 2 Rocket - Pass Details

Date: 18 November 2024
Orbit: 554 x 3296 km, 32.9° (Epoch: 30 November)

Event Time Altitude Azimuth Distance (km) Brightness Sun altitude
Exits shadow 12:32:10 - 240° (WSW) 4,685 10.1 -12.8°
Rises 12:32:18 0° 240° (WSW) 4,650 10.1 -12.8°
Reaches altitude 10° 12:34:52 10° 238° (WSW) 3,958 9.8 -12.2°
Maximum altitude 12:46:09 70° 157° (SSE) 2,553 9.3 -10.0°
Drops below altitude 10° 13:04:39 10° 78° (ENE) 6,138 12.2 -6.3°
Sets 13:09:46 0° 77° (ENE) 7,262 12.6 -5.3°
